User: anonymous   Login
Location: Unspecified
(0.0000°N, 0.0000°E)
Time: 01:50:15
(UTC+00:00)
Language:

AUBIESAT-1 - Orbit

View from above orbital plane
View from above orbital plane
View from above satellite
View from above satellite

Ground track
Ground track

The orbit data is extracted from the following two-line orbital elements,

1 37854U 11061E   14303.96349916  .00011300  00000-0  72067-3 0  9488
2 37854 101.7076 040.8428 0207624 019.8749 036.8794 14.92914738162954
Epoch (UTC): 30 October 2014 23:07:26
Eccentricity: 0.0207624
inclination: 101.7076°
perigee height: 444 km
apogee height: 733 km
right ascension of ascending node: 40.8428°
argument of perigee: 19.8749°
revolutions per day: 14.92914738
mean anomaly at epoch: 36.8794°
orbit number at epoch: 16295

The dashed part of the orbit path shows where the satellite is in the earth's shadow,  

DLR